BAW691 LJLJ-EGLL

Flight info

Callsign BAW691
Flight time N/A
Altitude 34000
Route LUPIX DCT EBITI DCT INGID DCT SIMBA DCT MAMOR DCT INBED DCT BOMBI DCT ADKUV DCT LENDO DCT SOGRI DCT DENUT L608 LOGAN
Aircraft A320/M-SDE3FGHIRWY/LB1

Departure

Time N/A
Airport Ljubljana Jože Pučnik Airport (LJLJ)

Arrival

Time 2026-05-05 19:15
Airport London Heathrow Airport (EGLL)
Time Latitude Longitude Altitude Speed Heading
2026-05-05 18:52 51.74345 1.59483 27576 ft 463 kts 271°
2026-05-05 18:52 51.74385 1.56063 26633 ft 458 kts 266°
2026-05-05 18:52 51.74010 1.49301 24903 ft 447 kts 263°
2026-05-05 18:53 51.73692 1.44353 23658 ft 440 kts 264°
2026-05-05 18:53 51.73371 1.39472 22235 ft 435 kts 264°
2026-05-05 18:53 51.73055 1.34680 21230 ft 422 kts 264°
2026-05-05 18:53 51.72751 1.30067 20719 ft 409 kts 264°
2026-05-05 18:54 51.72451 1.25517 20110 ft 406 kts 264°
2026-05-05 18:54 51.72154 1.21021 19505 ft 402 kts 264°
2026-05-05 18:54 51.71854 1.16527 18895 ft 403 kts 264°
2026-05-05 18:54 51.71552 1.12039 18295 ft 402 kts 264°
2026-05-05 18:55 51.71249 1.07578 17638 ft 399 kts 263°
2026-05-05 18:55 51.71046 1.04635 17243 ft 397 kts 263°
2026-05-05 18:55 51.70743 1.00241 16656 ft 393 kts 264°
2026-05-05 18:55 51.70443 0.95888 16062 ft 389 kts 264°
2026-05-05 18:56 51.70144 0.91580 15481 ft 385 kts 264°
2026-05-05 18:56 51.69850 0.87306 14901 ft 381 kts 264°
2026-05-05 18:56 51.69556 0.83085 14328 ft 377 kts 264°
2026-05-05 18:56 51.69263 0.78903 13750 ft 374 kts 264°
2026-05-05 18:57 51.68970 0.74763 13159 ft 370 kts 264°
2026-05-05 18:57 51.68674 0.70622 12627 ft 364 kts 264°
2026-05-05 18:57 51.68389 0.66632 12234 ft 355 kts 264°
2026-05-05 18:57 51.68109 0.62700 11962 ft 354 kts 264°
2026-05-05 18:58 51.67827 0.58759 11709 ft 354 kts 265°
2026-05-05 18:58 51.67541 0.54819 11457 ft 353 kts 265°
2026-05-05 18:58 51.67255 0.50897 11208 ft 352 kts 265°
2026-05-05 18:58 51.66971 0.46988 10957 ft 350 kts 265°
2026-05-05 18:59 51.66689 0.43106 10710 ft 348 kts 264°
2026-05-05 18:59 51.66403 0.39236 10466 ft 347 kts 265°
2026-05-05 18:59 51.66117 0.35383 10222 ft 346 kts 265°
2026-05-05 18:59 51.65836 0.31656 9994 ft 323 kts 265°
2026-05-05 19:00 51.65572 0.28208 9842 ft 299 kts 265°
2026-05-05 19:00 51.65326 0.24961 9380 ft 288 kts 264°
2026-05-05 19:00 51.65091 0.21841 9142 ft 280 kts 265°
2026-05-05 19:00 51.64859 0.18735 9009 ft 271 kts 265°
2026-05-05 19:01 51.64638 0.15769 8937 ft 261 kts 265°
2026-05-05 19:01 51.64442 0.12991 8948 ft 258 kts 266°
2026-05-05 19:01 51.64247 0.09974 8950 ft 278 kts 266°
2026-05-05 19:01 51.64046 0.06810 8946 ft 282 kts 266°
2026-05-05 19:02 51.63859 0.03734 8930 ft 277 kts 267°
2026-05-05 19:02 51.63669 0.00703 8796 ft 268 kts 266°
2026-05-05 19:02 51.63487 -0.02229 8708 ft 260 kts 266°
2026-05-05 19:02 51.63340 -0.04649 8602 ft 253 kts 266°
2026-05-05 19:03 51.63166 -0.07433 8438 ft 247 kts 266°
2026-05-05 19:03 51.62995 -0.10129 8188 ft 245 kts 266°
2026-05-05 19:03 51.62820 -0.12875 8025 ft 243 kts 266°
2026-05-05 19:03 51.62644 -0.15587 8023 ft 244 kts 266°
2026-05-05 19:04 51.62470 -0.18311 8026 ft 245 kts 266°
2026-05-05 19:04 51.62295 -0.21039 8023 ft 245 kts 266°
2026-05-05 19:04 51.62120 -0.23768 8026 ft 245 kts 266°
2026-05-05 19:04 51.61945 -0.26497 8027 ft 245 kts 266°
2026-05-05 19:05 51.61774 -0.29224 8033 ft 245 kts 266°
2026-05-05 19:05 51.61602 -0.31950 7943 ft 245 kts 266°
2026-05-05 19:05 51.61429 -0.34677 7946 ft 245 kts 266°
2026-05-05 19:05 51.61255 -0.37403 7941 ft 245 kts 266°
2026-05-05 19:06 51.61079 -0.40128 7949 ft 245 kts 266°
2026-05-05 19:06 51.60900 -0.42853 7947 ft 245 kts 266°
2026-05-05 19:06 51.60723 -0.45580 7948 ft 245 kts 266°
2026-05-05 19:06 51.60546 -0.48309 7950 ft 245 kts 266°
2026-05-05 19:07 51.60368 -0.51031 7785 ft 244 kts 266°
2026-05-05 19:07 51.60194 -0.53739 7489 ft 243 kts 266°
2026-05-05 19:07 51.60018 -0.56443 7198 ft 242 kts 266°
2026-05-05 19:07 51.59840 -0.59134 6908 ft 242 kts 266°
2026-05-05 19:08 51.59664 -0.61820 6626 ft 241 kts 266°
2026-05-05 19:08 51.59487 -0.64496 6356 ft 240 kts 266°
2026-05-05 19:08 51.59310 -0.67163 6060 ft 240 kts 266°
2026-05-05 19:08 51.59131 -0.69828 5755 ft 239 kts 266°
2026-05-05 19:09 51.58930 -0.72456 5539 ft 234 kts 258°
2026-05-05 19:09 51.58180 -0.74692 5412 ft 227 kts 224°
2026-05-05 19:09 51.56843 -0.75850 5283 ft 218 kts 190°
2026-05-05 19:09 51.55367 -0.76088 5169 ft 208 kts 181°
2026-05-05 19:10 51.53947 -0.76155 4926 ft 202 kts 180°
2026-05-05 19:10 51.52546 -0.76200 4544 ft 200 kts 180°
2026-05-05 19:10 51.51157 -0.76246 4089 ft 199 kts 180°
2026-05-05 19:10 51.49798 -0.76100 3907 ft 194 kts 159°
2026-05-05 19:11 51.48671 -0.74982 3454 ft 192 kts 132°
2026-05-05 19:11 51.47926 -0.73268 3165 ft 187 kts 110°
2026-05-05 19:11 51.47637 -0.71270 2918 ft 182 kts 89°
2026-05-05 19:11 51.47644 -0.69285 2675 ft 177 kts 87°
2026-05-05 19:12 51.47656 -0.67332 2441 ft 173 kts 86°
2026-05-05 19:12 51.47667 -0.65428 2205 ft 168 kts 86°
2026-05-05 19:12 51.47677 -0.63578 1992 ft 163 kts 87°
2026-05-05 19:12 51.47686 -0.61770 1767 ft 161 kts 87°
2026-05-05 19:13 51.47696 -0.59984 1567 ft 158 kts 88°
2026-05-05 19:13 51.47705 -0.58214 1335 ft 159 kts 88°
2026-05-05 19:13 51.47713 -0.56446 1114 ft 158 kts 88°
2026-05-05 19:13 51.47721 -0.54679 891 ft 159 kts 88°
2026-05-05 19:14 51.47729 -0.52918 666 ft 153 kts 88°
2026-05-05 19:14 51.47739 -0.51289 469 ft 141 kts 86°
2026-05-05 19:14 51.47745 -0.49735 268 ft 139 kts 86°
2026-05-05 19:14 51.47750 -0.48199 112 ft 137 kts 86°
2026-05-05 19:15 51.47761 -0.46782 89 ft 107 kts 90°
2026-05-05 19:15 51.47748 -0.46222 88 ft 16 kts 120°
2026-05-05 19:15 51.47653 -0.46088 89 ft 18 kts 148°
2026-05-05 19:15 51.47616 -0.46064 88 ft 0 kts 173°
2026-05-05 19:17 51.47610 -0.46070 86 ft 5 kts 210°
2026-05-05 19:17 51.47595 -0.46215 90 ft 18 kts 272°
2026-05-05 19:17 51.47594 -0.46430 86 ft 21 kts 269°
2026-05-05 19:18 51.47592 -0.46675 86 ft 23 kts 270°
2026-05-05 19:18 51.47583 -0.46946 89 ft 26 kts 268°
2026-05-05 19:18 51.47583 -0.47246 86 ft 28 kts 270°
2026-05-05 19:18 51.47581 -0.47573 87 ft 30 kts 269°
2026-05-05 19:19 51.47580 -0.47894 88 ft 25 kts 269°
2026-05-05 19:19 51.47580 -0.48148 89 ft 25 kts 271°
2026-05-05 19:19 51.47579 -0.48366 90 ft 21 kts 266°
2026-05-05 19:19 51.47526 -0.48490 88 ft 14 kts 197°
2026-05-05 19:20 51.47441 -0.48475 86 ft 13 kts 177°
2026-05-05 19:20 51.47358 -0.48486 86 ft 7 kts 232°
2026-05-05 19:20 51.47361 -0.48541 86 ft 7 kts 271°
2026-05-05 19:20 51.47361 -0.48587 86 ft 0 kts 270°